[[{"header":{"parameterUnit":"m.s-1","parameterCategory":1,"la1":30.2991,"la2":30.254,"lo1":-89.0895,"lo2":-89.0444,"dy":0.0017,"dx":0.0017,"nx":28,"ny":28,"refTime":"2026-02-12T03:00:00:Z","depth":0,"parameterNumber":2,"parameterNumberName":"U-component_of_WINDS"},"data":[0,0,0,0,0,0,0,0,0,0,0,0,0,0,0,0,0,0,0,0,0,0,0,0,0,0,0,0,0,0,0,0,0,0,0,0,0,0,0,0,0,0,0,0,0,0,0,0,0,0,0,0,0,0,0,0,0,0,-0.8052,-0.8052,0,-0.8023,-0.8023,-0.8023,-0.7977,-0.7976,-0.7976,-0.7975,-0.7947,-0.7947,-0.7947,0,0,0,0,0,0,0,0,0,0,0,0,0,-0.8071,-0.8071,-0.8052,-0.8052,-0.8052,-0.8023,-0.8023,-0.8023,-0.7977,-0.7976,-0.7975,-0.7974,-0.7947,-0.7947,-0.7947,0,0,0,0,0,0,0,0,0,0,0,0,0,-0.8055,-0.8071,-0.8052,-0.8026,-0.8023,-0.8024,-0.8023,-0.8023,-0.7978,-0.7976,-0.7975,-0.7974,-0.7947,-0.7947,-0.7947,-0.7972,0,0,-0.7947,-0.7947,0,0,0,0,0,0,0,0,-0.8056,-0.8054,-0.803,-0.8027,-0.8024,-0.8003,-0.8019,-0.8006,-0.7978,-0.7995,-0.7975,-0.7973,-0.7967,-0.7965,-0.7963,-0.7971,-0.797,-0.7947,-0.7947,-0.7948,-0.7948,0,0,0,0,0,0,0,-0.8057,-0.8055,-0.8041,-0.803,-0.8026,-0.8016,-0.8012,-0.8017,-0.7988,-0.7993,-0.799,-0.7987,-0.7965,-0.7963,-0.7962,-0.7969,-0.7947,-0.7948,-0.7948,-0.7948,-0.7999,-0.8,0,0,0,0,0,0,-0.8062,-0.8056,-0.8042,-0.804,-0.8037,-0.8017,-0.8012,-0.8011,-0.7988,-0.7983,-0.7988,-0.7985,-0.7963,-0.7962,-0.796,-0.7989,-0.7948,-0.7948,-0.7948,-0.7997,-0.7999,-0.8001,0,0,0,0,0,0,-0.8062,-0.8061,-0.8043,-0.8047,-0.8044,-0.8018,-0.8016,-0.8011,-0.8008,-0.7984,-0.7979,-0.7991,-0.7962,-0.796,-0.797,-0.7988,-0.7948,-0.7948,-0.7996,-0.7998,-0.8,-0.8047,0,0,0,0,0,0,-0.8063,-0.8061,-0.807,-0.8048,-0.8044,-0.8052,-0.8017,-0.8011,-0.8008,-0.8004,-0.7985,-0.7981,-0.7961,-0.797,-0.797,-0.7987,-0.7948,-0.7994,-0.7997,-0.7999,-0.8044,-0.805,-0.8056,0,0,0,0,0,-0.8064,-0.8084,-0.8071,-0.8069,-0.8054,-0.8054,-0.8052,-0.8028,-0.801,-0.8019,-0.8004,-0.7981,-0.7986,-0.7971,-0.7971,-0.7988,-0.7993,-0.7996,-0.7999,-0.8041,-0.8049,-0.8056,0,0,0,0,0,0,-0.811,-0.8081,-0.8065,-0.8079,-0.8069,-0.8046,-0.8056,-0.8037,-0.8032,-0.8028,-0.8,-0.7996,-0.8009,-0.8,-0.7984,-0.8012,-0.7986,-0.7989,-0.8018,-0.8026,-0.8032,-0.8034,-0.7948,0,0,0,0,0,-0.8122,-0.8123,-0.8098,-0.8112,-0.8108,-0.8083,-0.8082,-0.8065,-0.8053,-0.8049,-0.8034,-0.8025,-0.8024,-0.8024,-0.8022,-0.8042,-0.8038,-0.8054,-0.806,-0.8065,-0.8068,-0.808,-0.8087,-0.801,-0.801,-0.801,0,0,-0.8146,-0.813,-0.8133,-0.8121,-0.8111,-0.8114,-0.808,-0.8084,-0.8086,-0.805,-0.8058,-0.8047,-0.8035,-0.805,-0.8056,-0.8042,-0.8088,-0.8069,-0.8073,-0.8074,-0.8083,-0.8091,-0.8097,-0.8012,-0.8012,-0.8012,0,0,-0.8192,-0.8179,-0.8191,-0.8182,-0.8167,-0.8151,-0.8154,-0.8133,-0.8125,-0.8132,-0.8105,-0.8108,-0.8107,-0.81,-0.8096,-0.814,-0.812,-0.814,-0.8173,-0.8184,-0.819,-0.8195,-0.8212,-0.8219,-0.8143,-0.8143,-0.8143,0,-0.8224,-0.8226,-0.82,-0.8206,-0.8202,-0.8169,-0.8181,-0.8174,-0.8159,-0.8158,-0.8143,-0.8142,-0.8131,-0.8145,-0.8156,-0.8153,-0.8157,-0.8142,-0.8191,-0.8196,-0.8201,-0.8217,-0.8223,-0.8146,-0.8146,-0.8145,-0.8145,0,-0.8268,-0.827,-0.8281,-0.8268,-0.8265,-0.8275,-0.825,-0.8251,-0.8234,-0.822,-0.8229,-0.8215,-0.821,-0.8212,-0.8195,-0.8224,-0.8216,-0.8196,-0.8169,-0.8211,-0.8226,-0.8232,-0.815,-0.8149,-0.8148,-0.8147,0,0,-0.8342,-0.8314,-0.8319,-0.8313,-0.8295,-0.8296,-0.8305,-0.8299,-0.8301,-0.8293,-0.83,-0.83,-0.8282,-0.8278,-0.826,-0.827,-0.8308,-0.825,-0.8249,-0.8262,-0.834,-0.8356,-0.8364,-0.8294,-0.8295,-0.8296,-0.8342,0,-0.8385,-0.8397,-0.8374,-0.8392,-0.8394,-0.8363,-0.837,-0.836,-0.8347,-0.8348,-0.8334,-0.8335,-0.831,-0.8308,-0.8316,-0.8302,-0.8324,-0.8298,-0.8302,-0.8303,-0.8307,-0.8371,-0.8387,-0.8431,-0.8347,-0.8348,-0.8349,0,-0.8437,-0.8431,-0.845,-0.8431,-0.8431,-0.8438,-0.8432,-0.8433,-0.8422,-0.8412,-0.8407,-0.8387,-0.8395,-0.8368,-0.838,-0.8363,-0.8363,-0.8356,-0.8357,-0.8358,-0.8329,-0.8375,-0.8444,-0.8452,-0.8357,-0.8357,-0.8356,0,-0.8492,-0.8488,-0.8499,-0.8495,-0.8473,-0.8479,-0.847,-0.8458,-0.8457,-0.8451,-0.8451,-0.8447,-0.8445,-0.8443,-0.8422,-0.8404,-0.8437,-0.8408,-0.843,-0.843,-0.8438,-0.8439,-0.8511,-0.8437,-0.8437,-0.8437,-0.8436,0,-0.8543,-0.8556,-0.8523,-0.853,-0.8544,-0.8517,-0.8532,-0.852,-0.8509,-0.8514,-0.8486,-0.8492,-0.8463,-0.8466,-0.845,-0.8462,-0.8461,-0.8454,-0.845,-0.8458,-0.8459,-0.8458,-0.8455,-0.8438,-0.8438,-0.8438,-0.8437,0,-0.8607,-0.8585,-0.8595,-0.8574,-0.8569,-0.858,-0.8562,-0.8568,-0.8553,-0.856,-0.856,-0.8537,-0.8538,-0.8517,-0.8515,-0.8504,-0.8525,-0.8514,-0.8528,-0.8526,-0.8549,-0.8548,-0.8625,-0.8634,-0.8553,-0.8554,-0.8554,0,-0.8642,-0.8651,-0.8631,-0.8632,-0.8624,-0.8626,-0.8625,-0.8599,-0.8599,-0.8587,-0.8595,-0.8594,-0.8592,-0.8597,-0.858,-0.8579,-0.8569,-0.8596,-0.8569,-0.8576,-0.8571,-0.8572,-0.8573,-0.8602,-0.8603,-0.8604,-0.8605,0,-0.8707,-0.8696,-0.8694,-0.869,-0.8688,-0.8684,-0.8677,-0.868,-0.8652,-0.8653,-0.8654,-0.8653,-0.865,-0.865,-0.8646,-0.8638,-0.8618,-0.8613,-0.8619,-0.8627,-0.8635,-0.8633,-0.8546,-0.8612,-0.8611,-0.8611,-0.861,-0.861,-0.8758,-0.8765,-0.8752,-0.8752,-0.8744,-0.8739,-0.8744,-0.8729,-0.873,-0.8725,-0.871,-0.8714,-0.8704,-0.8695,-0.8689,-0.8693,-0.868,-0.8687,-0.8689,-0.8692,-0.8697,-0.8634,-0.8692,-0.8692,-0.8691,-0.8691,-0.8691,0,-0.8823,-0.8813,-0.8813,-0.8805,-0.8805,-0.8784,-0.8776,-0.8778,-0.8782,-0.8773,-0.8772,-0.8774,-0.8774,-0.8758,-0.8757,-0.8763,-0.8753,-0.8763,-0.8763,-0.8762,-0.8708,-0.8704,-0.8771,-0.8771,-0.8771,-0.8771,-0.8771,-0.8771,-0.8857,-0.8868,-0.8856,-0.8864,-0.8854,-0.8857,-0.8855,-0.885,-0.8843,-0.8846,-0.8846,-0.8835,-0.8824,-0.8822,-0.8821,-0.8817,-0.8818,-0.8831,-0.8824,-0.8773,-0.8766,-0.8758,-0.8755,-0.8832,-0.8832,-0.8878,-0.8879,-0.8879]},{"header":{"parameterUnit":"m.s-1","parameterCategory":1,"la1":30.2991,"la2":30.254,"lo1":-89.0895,"lo2":-89.0444,"dy":0.0017,"dx":0.0017,"nx":28,"ny":28,"refTime":"2026-02-12T03:00:00:Z","depth":0,"parameterNumber":3,"parameterNumberName":"V-component_of_WINDS"},"data":[0,0,0,0,0,0,0,0,0,0,0,0,0,0,0,0,0,0,0,0,0,0,0,0,0,0,0,0,0,0,0,0,0,0,0,0,0,0,0,0,0,0,0,0,0,0,0,0,0,0,0,0,0,0,0,0,0,0,1.3634,1.3635,0,1.3687,1.3688,1.3688,1.3714,1.3714,1.3714,1.3714,1.3765,1.3766,1.3767,0,0,0,0,0,0,0,0,0,0,0,0,0,1.3554,1.3555,1.3634,1.3635,1.3635,1.3687,1.3688,1.3688,1.3714,1.3714,1.3714,1.3714,1.3764,1.3766,1.3768,0,0,0,0,0,0,0,0,0,0,0,0,0,1.3596,1.3555,1.3634,1.3655,1.3657,1.3687,1.3688,1.3688,1.3714,1.3714,1.3714,1.3714,1.3764,1.3766,1.3768,1.378,0,0,1.3774,1.3775,0,0,0,0,0,0,0,0,1.3593,1.3598,1.3651,1.3653,1.3656,1.3694,1.3678,1.3719,1.3714,1.3692,1.3714,1.3714,1.3741,1.3745,1.3755,1.3783,1.3785,1.3774,1.3775,1.3776,1.3777,0,0,0,0,0,0,0,1.359,1.3596,1.3655,1.3652,1.3655,1.366,1.3666,1.3686,1.3716,1.3694,1.3696,1.3702,1.3742,1.3753,1.3756,1.3786,1.3774,1.3776,1.3777,1.3778,1.3827,1.3827,0,0,0,0,0,0,1.3584,1.3594,1.3653,1.3657,1.3624,1.3662,1.3669,1.3682,1.3716,1.3721,1.3702,1.3703,1.3749,1.3754,1.3758,1.3776,1.3776,1.3778,1.3779,1.3827,1.3827,1.3827,0,0,0,0,0,0,1.3582,1.3589,1.3651,1.3626,1.3634,1.3663,1.3678,1.3683,1.3693,1.3722,1.3727,1.3707,1.3749,1.3755,1.3775,1.3778,1.3779,1.3781,1.3827,1.3827,1.3827,1.381,0,0,0,0,0,0,1.358,1.3589,1.3594,1.3626,1.3635,1.3668,1.3678,1.3684,1.3697,1.3699,1.3728,1.3733,1.375,1.3772,1.3777,1.378,1.3783,1.3827,1.3827,1.3827,1.3811,1.381,1.3809,0,0,0,0,0,1.3577,1.3586,1.3594,1.3601,1.3643,1.3668,1.3673,1.3694,1.3697,1.3703,1.3721,1.3732,1.3777,1.3774,1.378,1.3784,1.3827,1.3827,1.3827,1.3811,1.381,1.3809,0,0,0,0,0,0,1.3553,1.3591,1.36,1.362,1.3641,1.3672,1.368,1.3692,1.3711,1.3712,1.3735,1.3742,1.376,1.3774,1.377,1.3798,1.3803,1.3804,1.3788,1.3788,1.3787,1.3783,1.3784,0,0,0,0,0,1.355,1.3568,1.36,1.3614,1.3624,1.365,1.3662,1.3676,1.3698,1.3706,1.3727,1.3747,1.3766,1.3777,1.3796,1.3813,1.382,1.3819,1.3818,1.3817,1.3818,1.3829,1.3829,1.3828,1.3828,1.3828,0,0,1.3543,1.3567,1.3576,1.361,1.3628,1.3645,1.3657,1.3675,1.3688,1.3709,1.3729,1.3745,1.3769,1.3788,1.3797,1.38,1.382,1.3817,1.3816,1.3818,1.3829,1.3829,1.3829,1.3828,1.3828,1.3828,0,0,1.3541,1.356,1.3575,1.3593,1.3621,1.3638,1.3642,1.3672,1.3683,1.3705,1.3721,1.3736,1.3768,1.3785,1.3797,1.3803,1.3814,1.3808,1.3804,1.3814,1.3814,1.3814,1.3817,1.3817,1.3809,1.3809,1.3809,0,1.353,1.3558,1.3581,1.3599,1.3613,1.3634,1.3648,1.3664,1.3696,1.3705,1.3708,1.3749,1.3767,1.379,1.3792,1.3801,1.3806,1.3805,1.3812,1.3813,1.3813,1.3816,1.3817,1.3808,1.3808,1.3808,1.3809,0,1.3543,1.3562,1.3571,1.3602,1.3618,1.3633,1.3658,1.3671,1.3684,1.3701,1.3722,1.3744,1.3768,1.3775,1.3787,1.38,1.3801,1.3808,1.3813,1.3812,1.3815,1.3816,1.3807,1.3807,1.3808,1.3808,0,0,1.3526,1.3572,1.3574,1.3589,1.3622,1.3637,1.3653,1.3678,1.3689,1.371,1.3725,1.3752,1.3759,1.3773,1.3787,1.3796,1.38,1.3802,1.3803,1.3801,1.3817,1.3812,1.3812,1.3807,1.3808,1.3808,1.3815,0,1.3529,1.3562,1.3583,1.3607,1.3625,1.3646,1.3661,1.3682,1.3698,1.3716,1.3733,1.3752,1.376,1.3769,1.3779,1.3797,1.3803,1.3797,1.3821,1.3822,1.3815,1.3814,1.3808,1.3814,1.3816,1.3816,1.3816,0,1.3537,1.3559,1.3585,1.3617,1.3625,1.3638,1.3663,1.368,1.3704,1.3715,1.3732,1.3747,1.3765,1.3769,1.3795,1.379,1.3801,1.3812,1.3812,1.3815,1.3819,1.3817,1.3816,1.3817,1.3818,1.3818,1.3818,0,1.3523,1.3559,1.358,1.3592,1.3629,1.3638,1.3653,1.3678,1.3692,1.3713,1.3722,1.3745,1.3758,1.3775,1.3795,1.3796,1.3819,1.3824,1.3829,1.3828,1.3832,1.3832,1.3833,1.3839,1.3839,1.3839,1.3839,0,1.3524,1.3539,1.3574,1.3587,1.3605,1.3629,1.3646,1.3663,1.3685,1.3701,1.3719,1.3734,1.376,1.3777,1.3793,1.3812,1.3817,1.3827,1.3831,1.3826,1.3824,1.3833,1.3833,1.3839,1.3839,1.3839,1.3839,0,1.3511,1.3535,1.3559,1.3593,1.3602,1.3613,1.3642,1.3655,1.3673,1.3693,1.3699,1.3726,1.3748,1.377,1.3799,1.381,1.3829,1.3834,1.3821,1.3823,1.3827,1.3826,1.3834,1.3836,1.384,1.384,1.384,0,1.351,1.3523,1.3558,1.3571,1.3587,1.3607,1.3622,1.3646,1.366,1.369,1.3699,1.3723,1.3743,1.3776,1.3798,1.382,1.3827,1.3828,1.383,1.3825,1.3827,1.3827,1.3828,1.3827,1.3827,1.3827,1.3827,0,1.3507,1.3518,1.354,1.3565,1.3583,1.3604,1.3625,1.3634,1.3663,1.3678,1.3701,1.3717,1.3747,1.377,1.3796,1.3811,1.3823,1.3826,1.3828,1.3823,1.3815,1.382,1.3819,1.3825,1.3826,1.3826,1.3826,1.3826,1.35,1.3513,1.354,1.3563,1.3583,1.3603,1.3617,1.3637,1.3657,1.3685,1.3698,1.3721,1.3746,1.3781,1.3796,1.3814,1.3818,1.3821,1.3822,1.3822,1.3821,1.3812,1.3819,1.3819,1.3819,1.3819,1.3819,0,1.3498,1.3517,1.3538,1.3569,1.3587,1.3599,1.3623,1.3638,1.3658,1.3681,1.3701,1.3728,1.375,1.3775,1.3798,1.3808,1.3815,1.3814,1.3813,1.3817,1.3816,1.3812,1.3808,1.3808,1.3808,1.3808,1.3808,1.3808,1.3499,1.3521,1.3536,1.3568,1.3587,1.3611,1.3624,1.3643,1.3661,1.3691,1.371,1.3726,1.3749,1.3775,1.3797,1.3803,1.3811,1.3809,1.3817,1.3816,1.3817,1.3817,1.3814,1.381,1.381,1.3816,1.3816,1.3816]}]]